sat.trackr.live / text

‹ back to catalog

STARLINK-37432

NORAD 68896 · 2026-097B

PAYLOAD ACTIVE UNKNOWN

§ Identity

Operator
Country
US
Launch date
2026-04-30
Launch site
AFWTR
Launch vehicle
Mass (kg)
RCS (m²)

Purposes: comms

External: N2YO · Heavens-Above · Gunter

§ Orbital elements

Epoch: 2026-05-25T04:00:03.998880Z

Period
93.33 min
Inclination
97.2864°
Eccentricity
0.0001793
Mean motion
15.42900535 rev/d
Perigee alt
436.3 km
Apogee alt
438.8 km
Semi-major
6,815.7 km
B*
-5.8459e-2
RAAN
341.0056°
Arg perigee
70.9216°
Mean anomaly
61.8883°
Rev number
521

§ Raw data

STARLINK-374321 68896U 26097B   26145.16671295 -.02294500  00000+0 -58459-1 0  99912 68896  97.2864 341.0056 0001793  70.9216  61.8883 15.42900535  5215

JSON: /api/v1/satellites/68896 · /tle

For live sub-satellite position, see the globe view (requires WebGL).

§ Visibility from observer

Set your observer location to see the next 7 days of passes ≥ 10°. The values pass through the URL so the page stays shareable.

No JS? Fill the form by hand. The geolocation button needs JavaScript.